,,PressureMeas_1m,,PRMeasQMR101_1,,RHStat155_1m_1,,SRMeasQMS101R_1m,,TAStat155_1m_1,,GenWind_1,,GenWind_1,
2019-11-06, 00:00:07,VALID,918.561,VALID,0.0,VALID,96.888,VALID,-0.009,VALID,19.238,INVALID,360.0,VALID,0.0,
2019-11-06, 00:01:07,VALID,918.548,VALID,0.0,VALID,96.381,VALID,-0.001,VALID,19.157,INVALID,360.0,VALID,0.0,
2019-11-06, 00:02:07,VALID,918.518,VALID,0.0,VALID,96.28,VALID,-0.003,VALID,19.153,INVALID,360.0,VALID,0.0,
2019-11-06, 00:03:07,VALID,918.495,VALID,0.0,VALID,96.276,VALID,-0.015,VALID,19.158,INVALID,360.0,VALID,0.0,
2019-11-06, 00:04:07,VALID,918.48,VALID,0.0,VALID,96.24,VALID,-0.001,VALID,19.158,INVALID,360.0,VALID,0.0,
2019-11-06, 00:05:07,VALID,918.468,VALID,0.0,VALID,96.078,VALID,-0.024,VALID,19.149,INVALID,360.0,VALID,0.0,
2019-11-06, 00:06:07,VALID,918.448,VALID,0.0,VALID,95.796,VALID,-0.033,VALID,19.162,INVALID,360.0,VALID,0.0,
2019-11-06, 00:07:07,VALID,918.426,VALID,0.0,VALID,95.643,VALID,0.013,VALID,19.215,INVALID,360.0,VALID,0.0,
2019-11-06, 00:08:07,VALID,918.403,VALID,0.0,VALID,95.485,VALID,0.035,VALID,19.242,INVALID,360.0,VALID,0.0,
2019-11-06, 00:09:07,VALID,918.389,VALID,0.0,VALID,95.264,VALID,0.029,VALID,19.265,INVALID,360.0,VALID,0.0,
2019-11-06, 00:10:07,VALID,918.374,VALID,0.0,VALID,95.325,VALID,0.038,VALID,19.308,INVALID,360.0,VALID,0.0,
2019-11-06, 00:11:07,VALID,918.381,VALID,0.0,VALID,95.254,VALID,0.035,VALID,19.29,INVALID,360.0,VALID,0.0,
2019-11-06, 00:12:07,VALID,918.372,VALID,0.0,VALID,95.415,VALID,0.04,VALID,19.286,INVALID,360.0,VALID,0.0,
2019-11-06, 00:13:07,VALID,918.359,VALID,0.0,VALID,95.454,VALID,0.038,VALID,19.306,INVALID,360.0,VALID,0.0,
2019-11-06, 00:14:07,VALID,918.349,VALID,0.0,VALID,95.451,VALID,0.043,VALID,19.334,INVALID,360.0,VALID,0.0,
2019-11-06, 00:15:07,VALID,918.316,VALID,0.0,VALID,95.743,VALID,0.033,VALID,19.335,INVALID,360.0,VALID,0.0,
2019-11-06, 00:16:07,VALID,918.298,VALID,0.0,VALID,96.198,VALID,0.036,VALID,19.356,INVALID,360.0,VALID,0.0,
2019-11-06, 00:17:07,VALID,918.267,VALID,0.0,VALID,96.328,VALID,0.021,VALID,19.369,INVALID,360.0,VALID,0.0,
2019-11-06, 00:18:07,VALID,918.232,VALID,0.0,VALID,96.479,VALID,0.037,VALID,19.376,INVALID,360.0,VALID,0.0,
2019-11-06, 00:19:07,VALID,918.214,VALID,0.0,VALID,96.404,VALID,0.026,VALID,19.373,INVALID,360.0,VALID,0.0,
2019-11-06, 00:20:07,VALID,918.209,VALID,0.0,VALID,96.249,VALID,0.041,VALID,19.372,INVALID,360.0,VALID,0.0,
2019-11-06, 00:21:07,VALID,918.19,VALID,0.0,VALID,96.383,VALID,0.029,VALID,19.381,INVALID,360.0,VALID,0.0,
2019-11-06, 00:22:07,VALID,918.157,VALID,0.0,VALID,96.439,VALID,0.021,VALID,19.377,INVALID,360.0,VALID,0.0,
2019-11-06, 00:23:07,VALID,918.168,VALID,0.0,VALID,96.251,VALID,0.011,VALID,19.359,INVALID,360.0,VALID,0.0,
2019-11-06, 00:24:07,VALID,918.166,VALID,0.0,VALID,96.339,VALID,0.023,VALID,19.339,INVALID,360.0,VALID,0.0,
2019-11-06, 00:25:07,VALID,918.151,VALID,0.0,VALID,96.493,VALID,0.037,VALID,19.315,INVALID,360.0,VALID,0.0,
2019-11-06, 00:26:07,VALID,918.135,VALID,0.0,VALID,96.752,VALID,0.026,VALID,19.29,INVALID,360.0,VALID,0.0,
2019-11-06, 00:27:07,VALID,918.134,VALID,0.0,VALID,97.029,VALID,0.022,VALID,19.278,INVALID,360.0,VALID,0.0,
2019-11-06, 00:28:07,VALID,918.125,VALID,0.0,VALID,97.346,VALID,0.03,VALID,19.286,INVALID,360.0,VALID,0.0,
2019-11-06, 00:29:07,VALID,918.112,VALID,0.0,VALID,97.542,VALID,0.015,VALID,19.297,INVALID,360.0,VALID,0.0,
2019-11-06, 00:30:07,VALID,918.094,VALID,0.0,VALID,97.564,VALID,0.006,VALID,19.312,INVALID,360.0,VALID,0.0,
2019-11-06, 00:31:07,VALID,918.072,VALID,0.0,VALID,97.737,VALID,0.003,VALID,19.349,INVALID,360.0,VALID,0.0,
2019-11-06, 00:32:06,VALID,918.06,VALID,0.0,VALID,97.792,VALID,0.009,VALID,19.348,INVALID,360.0,VALID,0.0,
2019-11-06, 00:33:06,VALID,918.053,VALID,0.0,VALID,97.805,VALID,0.012,VALID,19.337,INVALID,360.0,VALID,0.0,
2019-11-06, 00:34:06,VALID,918.047,VALID,0.0,VALID,97.885,VALID,0.016,VALID,19.351,INVALID,360.0,VALID,0.0,
2019-11-06, 00:35:06,VALID,918.04,VALID,0.0,VALID,97.907,VALID,0.023,VALID,19.363,INVALID,360.0,VALID,0.0,
2019-11-06, 00:36:06,VALID,918.028,VALID,0.0,VALID,97.885,VALID,0.016,VALID,19.366,INVALID,360.0,VALID,0.0,
2019-11-06, 00:37:06,VALID,918.014,VALID,0.0,VALID,97.793,VALID,-0.004,VALID,19.323,INVALID,360.0,VALID,0.0,
2019-11-06, 00:38:06,VALID,917.989,VALID,0.0,VALID,98.011,VALID,-0.015,VALID,19.319,INVALID,360.0,VALID,0.0,
2019-11-06, 00:39:06,VALID,917.997,VALID,0.0,VALID,97.987,VALID,-0.012,VALID,19.315,VALID,5.0,VALID,0.0,
2019-11-06, 00:40:06,VALID,917.988,VALID,0.0,VALID,97.897,VALID,-0.004,VALID,19.298,VALID,5.0,VALID,0.0,
2019-11-06, 00:41:06,VALID,917.991,VALID,0.0,VALID,97.833,VALID,-0.0,VALID,19.282,VALID,5.0,VALID,0.0,
2019-11-06, 00:42:06,VALID,917.968,VALID,0.0,VALID,97.884,VALID,-0.018,VALID,19.295,VALID,5.0,VALID,0.0,
2019-11-06, 00:43:06,VALID,917.952,VALID,0.0,VALID,97.883,VALID,-0.024,VALID,19.288,INVALID,360.0,VALID,0.0,
2019-11-06, 00:44:06,VALID,917.935,VALID,0.0,VALID,97.891,VALID,-0.01,VALID,19.267,INVALID,360.0,VALID,0.0,
2019-11-06, 00:45:06,VALID,917.909,VALID,0.0,VALID,98.102,VALID,-0.013,VALID,19.296,INVALID,360.0,VALID,0.0,
2019-11-06, 00:46:06,VALID,917.895,VALID,0.0,VALID,98.234,VALID,-0.029,VALID,19.284,INVALID,360.0,VALID,0.0,
2019-11-06, 00:47:06,VALID,917.872,VALID,0.0,VALID,98.341,VALID,-0.005,VALID,19.288,INVALID,360.0,VALID,0.0,
2019-11-06, 00:48:06,VALID,917.9,VALID,0.0,VALID,98.477,VALID,-0.02,VALID,19.32,INVALID,360.0,VALID,0.0,
2019-11-06, 00:49:06,VALID,917.911,VALID,0.0,VALID,98.449,VALID,-0.015,VALID,19.35,INVALID,360.0,VALID,0.0,
2019-11-06, 00:50:06,VALID,917.916,VALID,0.0,VALID,98.372,VALID,-0.021,VALID,19.371,INVALID,360.0,VALID,0.0,
2019-11-06, 00:51:06,VALID,917.897,VALID,0.0,VALID,98.215,VALID,-0.012,VALID,19.361,INVALID,360.0,VALID,0.0,
2019-11-06, 00:52:06,VALID,917.923,VALID,0.0,VALID,98.112,VALID,-0.025,VALID,19.337,INVALID,360.0,VALID,0.0,
2019-11-06, 00:53:06,VALID,917.93,VALID,0.0,VALID,98.101,VALID,-0.038,VALID,19.33,INVALID,360.0,VALID,0.0,
2019-11-06, 00:54:06,VALID,917.929,VALID,0.0,VALID,98.188,VALID,-0.026,VALID,19.347,INVALID,360.0,VALID,0.0,
2019-11-06, 00:55:06,VALID,917.93,VALID,0.0,VALID,98.269,VALID,-0.038,VALID,19.387,INVALID,360.0,VALID,0.0,
2019-11-06, 00:56:06,VALID,917.93,VALID,0.0,VALID,98.285,VALID,-0.012,VALID,19.42,INVALID,360.0,VALID,0.0,
2019-11-06, 00:57:06,VALID,917.925,VALID,0.0,VALID,98.12,VALID,-0.024,VALID,19.431,INVALID,360.0,VALID,0.0,
2019-11-06, 00:58:06,VALID,917.916,VALID,0.0,VALID,98.07,VALID,-0.041,VALID,19.443,INVALID,360.0,VALID,0.0,
2019-11-06, 00:59:06,VALID,917.906,VALID,0.0,VALID,98.249,VALID,-0.035,VALID,19.477,INVALID,360.0,VALID,0.0,
2019-11-06, 01:00:06,VALID,917.908,VALID,0.0,VALID,98.198,VALID,-0.03,VALID,19.49,INVALID,360.0,VALID,0.0,
2019-11-06, 01:01:06,VALID,917.893,VALID,0.0,VALID,97.83,VALID,-0.037,VALID,19.46,INVALID,360.0,VALID,0.0,
2019-11-06, 01:02:06,VALID,917.883,VALID,0.0,VALID,97.756,VALID,-0.041,VALID,19.477,INVALID,360.0,VALID,0.0,
2019-11-06, 01:03:06,VALID,917.869,VALID,0.0,VALID,97.844,VALID,-0.005,VALID,19.507,INVALID,360.0,VALID,0.0,
2019-11-06, 01:04:06,VALID,917.876,VALID,0.0,VALID,97.827,VALID,-0.024,VALID,19.509,INVALID,360.0,VALID,0.0,
2019-11-06, 01:05:06,VALID,917.875,VALID,0.0,VALID,98.002,VALID,-0.043,VALID,19.522,INVALID,360.0,VALID,0.0,
2019-11-06, 01:06:06,VALID,917.881,VALID,0.0,VALID,98.384,VALID,-0.039,VALID,19.556,INVALID,360.0,VALID,0.0,
2019-11-06, 01:07:06,VALID,917.909,VALID,0.0,VALID,98.358,VALID,0.009,VALID,19.537,INVALID,360.0,VALID,0.0,
2019-11-06, 01:08:06,VALID,917.897,VALID,0.0,VALID,98.244,VALID,-0.001,VALID,19.527,INVALID,360.0,VALID,0.0,
2019-11-06, 01:09:06,VALID,917.868,VALID,0.0,VALID,98.108,VALID,0.001,VALID,19.505,INVALID,360.0,VALID,0.0,
2019-11-06, 01:10:06,VALID,917.887,VALID,0.0,VALID,97.897,VALID,-0.01,VALID,19.473,INVALID,360.0,VALID,0.0,
2019-11-06, 01:11:06,VALID,917.863,VALID,0.0,VALID,97.74,VALID,-0.002,VALID,19.437,INVALID,360.0,VALID,0.0,
2019-11-06, 01:12:06,VALID,917.838,VALID,0.0,VALID,97.903,VALID,0.001,VALID,19.453,INVALID,360.0,VALID,0.0,
2019-11-06, 01:13:06,VALID,917.811,VALID,0.0,VALID,98.138,VALID,0.017,VALID,19.505,INVALID,360.0,VALID,0.0,
2019-11-06, 01:14:06,VALID,917.813,VALID,0.0,VALID,98.165,VALID,0.004,VALID,19.535,INVALID,360.0,VALID,0.0,
2019-11-06, 01:15:06,VALID,917.775,VALID,0.0,VALID,98.154,VALID,0.007,VALID,19.563,INVALID,360.0,VALID,0.0,
2019-11-06, 01:16:06,VALID,917.767,VALID,0.0,VALID,98.094,VALID,0.003,VALID,19.544,INVALID,360.0,VALID,0.0,
2019-11-06, 01:17:06,VALID,917.779,VALID,0.0,VALID,98.195,VALID,0.006,VALID,19.55,INVALID,360.0,VALID,0.0,
2019-11-06, 01:18:06,VALID,917.771,VALID,0.0,VALID,98.228,VALID,-0.017,VALID,19.56,INVALID,360.0,VALID,0.0,
2019-11-06, 01:19:06,VALID,917.757,VALID,0.0,VALID,98.19,VALID,0.001,VALID,19.561,INVALID,360.0,VALID,0.0,
2019-11-06, 01:20:06,VALID,917.748,VALID,0.0,VALID,98.2,VALID,0.012,VALID,19.573,INVALID,360.0,VALID,0.0,
2019-11-06, 01:21:06,VALID,917.74,VALID,0.0,VALID,98.118,VALID,0.013,VALID,19.559,INVALID,360.0,VALID,0.0,
2019-11-06, 01:22:06,VALID,917.731,VALID,0.0,VALID,98.018,VALID,-0.021,VALID,19.521,INVALID,360.0,VALID,0.0,
2019-11-06, 01:23:06,VALID,917.74,VALID,0.0,VALID,98.027,VALID,-0.038,VALID,19.5,INVALID,360.0,VALID,0.0,
2019-11-06, 01:24:06,VALID,917.724,VALID,0.0,VALID,98.023,VALID,-0.022,VALID,19.478,INVALID,360.0,VALID,0.0,
2019-11-06, 01:25:06,VALID,917.748,VALID,0.0,VALID,98.182,VALID,-0.04,VALID,19.503,INVALID,360.0,VALID,0.0,
2019-11-06, 01:26:06,VALID,917.749,VALID,0.0,VALID,98.125,VALID,-0.035,VALID,19.486,INVALID,360.0,VALID,0.0,
2019-11-06, 01:27:06,VALID,917.728,VALID,0.0,VALID,97.949,VALID,-0.037,VALID,19.458,INVALID,360.0,VALID,0.0,
2019-11-06, 01:28:06,VALID,917.743,VALID,0.0,VALID,97.981,VALID,-0.02,VALID,19.454,INVALID,360.0,VALID,0.0,
2019-11-06, 01:29:06,VALID,917.71,VALID,0.0,VALID,97.964,VALID,-0.028,VALID,19.441,INVALID,360.0,VALID,0.0,
2019-11-06, 01:30:06,VALID,917.708,VALID,0.0,VALID,98.039,VALID,-0.019,VALID,19.454,INVALID,360.0,VALID,0.0,
2019-11-06, 01:31:06,VALID,917.689,VALID,0.0,VALID,98.057,VALID,-0.023,VALID,19.456,INVALID,360.0,VALID,0.0,
2019-11-06, 01:32:06,VALID,917.676,VALID,0.0,VALID,98.006,VALID,-0.007,VALID,19.44,INVALID,360.0,VALID,0.0,
2019-11-06, 01:33:06,VALID,917.652,VALID,0.0,VALID,97.946,VALID,-0.022,VALID,19.416,INVALID,360.0,VALID,0.0,
2019-11-06, 01:34:06,VALID,917.659,VALID,0.0,VALID,97.98,VALID,-0.01,VALID,19.381,INVALID,360.0,VALID,0.0,
2019-11-06, 01:35:06,VALID,917.639,VALID,0.0,VALID,98.103,VALID,-0.014,VALID,19.372,INVALID,360.0,VALID,0.0,
2019-11-06, 01:36:06,VALID,917.621,VALID,0.0,VALID,98.116,VALID,-0.019,VALID,19.34,INVALID,360.0,VALID,0.0,
2019-11-06, 01:37:06,VALID,917.595,VALID,0.0,VALID,98.149,VALID,0.019,VALID,19.303,INVALID,360.0,VALID,0.0,
2019-11-06, 01:38:06,VALID,917.59,VALID,0.0,VALID,98.178,VALID,0.014,VALID,19.267,INVALID,360.0,VALID,0.0,
2019-11-06, 01:39:06,VALID,917.577,VALID,0.0,VALID,98.271,VALID,0.01,VALID,19.242,INVALID,360.0,VALID,0.0,
2019-11-06, 01:40:06,VALID,917.569,VALID,0.0,VALID,98.411,VALID,0.019,VALID,19.239,INVALID,360.0,VALID,0.0,
2019-11-06, 01:41:06,VALID,917.557,VALID,0.0,VALID,98.535,VALID,0.014,VALID,19.228,INVALID,360.0,VALID,0.0,
2019-11-06, 01:42:06,VALID,917.558,VALID,0.0,VALID,98.556,VALID,0.021,VALID,19.198,INVALID,360.0,VALID,0.0,
2019-11-06, 01:43:06,VALID,917.545,VALID,0.0,VALID,98.606,VALID,0.008,VALID,19.167,INVALID,360.0,VALID,0.0,
2019-11-06, 01:44:06,VALID,917.556,VALID,0.0,VALID,98.7,VALID,0.003,VALID,19.149,INVALID,360.0,VALID,0.0,
2019-11-06, 01:45:06,VALID,917.517,VALID,0.0,VALID,98.784,VALID,0.024,VALID,19.144,INVALID,360.0,VALID,0.0,
2019-11-06, 01:46:06,VALID,917.51,VALID,0.0,VALID,98.79,VALID,0.004,VALID,19.13,INVALID,360.0,VALID,0.0,
2019-11-06, 01:47:06,VALID,917.488,VALID,0.0,VALID,98.926,VALID,0.009,VALID,19.148,INVALID,360.0,VALID,0.0,
2019-11-06, 01:48:06,VALID,917.489,VALID,0.0,VALID,98.851,VALID,0.0,VALID,19.134,INVALID,360.0,VALID,0.0,
2019-11-06, 01:49:06,VALID,917.457,VALID,0.0,VALID,98.864,VALID,0.016,VALID,19.141,INVALID,360.0,VALID,0.0,
2019-11-06, 01:50:06,VALID,917.46,VALID,0.0,VALID,98.844,VALID,0.012,VALID,19.133,INVALID,360.0,VALID,0.0,
2019-11-06, 01:51:06,VALID,917.439,VALID,0.0,VALID,98.868,VALID,0.001,VALID,19.142,INVALID,360.0,VALID,0.0,
2019-11-06, 01:52:06,VALID,917.458,VALID,0.0,VALID,98.881,VALID,0.003,VALID,19.159,INVALID,360.0,VALID,0.0,
2019-11-06, 01:53:06,VALID,917.451,VALID,0.0,VALID,98.783,VALID,0.013,VALID,19.148,INVALID,360.0,VALID,0.0,
2019-11-06, 01:54:06,VALID,917.477,VALID,0.0,VALID,98.711,VALID,0.023,VALID,19.142,INVALID,360.0,VALID,0.0,
2019-11-06, 01:55:06,VALID,917.488,VALID,0.0,VALID,98.777,VALID,0.026,VALID,19.153,INVALID,360.0,VALID,0.0,
2019-11-06, 01:56:06,VALID,917.496,VALID,0.0,VALID,98.838,VALID,0.011,VALID,19.172,INVALID,360.0,VALID,0.0,
2019-11-06, 01:57:06,VALID,917.525,VALID,0.0,VALID,98.849,VALID,0.018,VALID,19.178,INVALID,360.0,VALID,0.0,
2019-11-06, 01:58:06,VALID,917.522,VALID,0.0,VALID,98.881,VALID,-0.007,VALID,19.178,INVALID,360.0,VALID,0.0,
2019-11-06, 01:59:06,VALID,917.502,VALID,0.0,VALID,98.854,VALID,0.004,VALID,19.188,INVALID,360.0,VALID,0.0,
2019-11-06, 02:00:06,VALID,917.473,VALID,0.0,VALID,98.869,VALID,0.001,VALID,19.207,INVALID,360.0,VALID,0.0,
2019-11-06, 02:01:06,VALID,917.447,VALID,0.0,VALID,98.827,VALID,0.023,VALID,19.204,INVALID,360.0,VALID,0.0,
2019-11-06, 02:02:06,VALID,917.421,VALID,0.0,VALID,98.827,VALID,-0.008,VALID,19.192,INVALID,360.0,VALID,0.0,
2019-11-06, 02:03:06,VALID,917.412,VALID,0.0,VALID,98.834,VALID,0.007,VALID,19.192,INVALID,360.0,VALID,0.0,
2019-11-06, 02:04:06,VALID,917.413,VALID,0.0,VALID,98.821,VALID,-0.005,VALID,19.198,INVALID,360.0,VALID,0.0,
2019-11-06, 02:05:06,VALID,917.408,VALID,0.0,VALID,98.81,VALID,0.019,VALID,19.2,INVALID,360.0,VALID,0.0,
2019-11-06, 02:06:06,VALID,917.427,VALID,0.0,VALID,98.75,VALID,0.02,VALID,19.188,INVALID,360.0,VALID,0.0,
2019-11-06, 02:07:06,VALID,917.447,VALID,0.0,VALID,98.783,VALID,-0.038,VALID,19.19,INVALID,360.0,VALID,0.0,
2019-11-06, 02:08:06,VALID,917.455,VALID,0.0,VALID,98.753,VALID,-0.041,VALID,19.159,INVALID,360.0,VALID,0.0,
2019-11-06, 02:09:06,VALID,917.441,VALID,0.0,VALID,98.828,VALID,-0.037,VALID,19.164,INVALID,360.0,VALID,0.0,
2019-11-06, 02:10:06,VALID,917.429,VALID,0.0,VALID,98.89,VALID,-0.033,VALID,19.154,INVALID,360.0,VALID,0.0,
2019-11-06, 02:11:06,VALID,917.404,VALID,0.0,VALID,98.951,VALID,-0.033,VALID,19.144,INVALID,360.0,VALID,0.0,
2019-11-06, 02:12:06,VALID,917.366,VALID,0.0,VALID,99.012,VALID,-0.045,VALID,19.145,INVALID,360.0,VALID,0.0,
2019-11-06, 02:13:06,VALID,917.341,VALID,0.0,VALID,99.064,VALID,-0.031,VALID,19.149,INVALID,360.0,VALID,0.0,
2019-11-06, 02:14:06,VALID,917.314,VALID,0.0,VALID,98.998,VALID,-0.035,VALID,19.147,INVALID,360.0,VALID,0.0,
2019-11-06, 02:15:06,VALID,917.295,VALID,0.0,VALID,98.938,VALID,-0.046,VALID,19.15,INVALID,360.0,VALID,0.0,
2019-11-06, 02:16:06,VALID,917.277,VALID,0.0,VALID,98.846,VALID,-0.023,VALID,19.146,INVALID,360.0,VALID,0.0,
2019-11-06, 02:17:06,VALID,917.258,VALID,0.0,VALID,98.778,VALID,-0.024,VALID,19.142,INVALID,360.0,VALID,0.0,
2019-11-06, 02:18:06,VALID,917.239,VALID,0.0,VALID,98.74,VALID,-0.037,VALID,19.14,INVALID,360.0,VALID,0.0,
2019-11-06, 02:19:06,VALID,917.235,VALID,0.0,VALID,98.789,VALID,-0.035,VALID,19.143,INVALID,360.0,VALID,0.0,
2019-11-06, 02:20:06,VALID,917.244,VALID,0.0,VALID,98.857,VALID,-0.038,VALID,19.14,INVALID,360.0,VALID,0.0,
2019-11-06, 02:21:06,VALID,917.254,VALID,0.0,VALID,98.964,VALID,-0.025,VALID,19.145,INVALID,360.0,VALID,0.0,
2019-11-06, 02:22:06,VALID,917.263,VALID,0.0,VALID,98.99,VALID,-0.039,VALID,19.158,INVALID,360.0,VALID,0.0,
2019-11-06, 02:23:06,VALID,917.262,VALID,0.0,VALID,98.974,VALID,-0.044,VALID,19.156,INVALID,360.0,VALID,0.0,
2019-11-06, 02:24:06,VALID,917.267,VALID,0.0,VALID,98.918,VALID,-0.037,VALID,19.165,INVALID,360.0,VALID,0.0,
2019-11-06, 02:25:06,VALID,917.248,VALID,0.0,VALID,98.9,VALID,-0.03,VALID,19.178,INVALID,360.0,VALID,0.0,
2019-11-06, 02:26:06,VALID,917.267,VALID,0.0,VALID,98.76,VALID,-0.061,VALID,19.166,INVALID,360.0,VALID,0.0,
2019-11-06, 02:27:06,VALID,917.246,VALID,0.0,VALID,98.664,VALID,-0.053,VALID,19.139,INVALID,360.0,VALID,0.0,
2019-11-06, 02:28:06,VALID,917.241,VALID,0.0,VALID,98.553,VALID,-0.045,VALID,19.102,INVALID,360.0,VALID,0.0,
2019-11-06, 02:29:06,VALID,917.243,VALID,0.0,VALID,98.529,VALID,-0.025,VALID,19.066,INVALID,360.0,VALID,0.0,
2019-11-06, 02:30:06,VALID,917.215,VALID,0.0,VALID,98.59,VALID,-0.039,VALID,19.027,INVALID,360.0,VALID,0.0,
2019-11-06, 02:31:06,VALID,917.201,VALID,0.0,VALID,98.793,VALID,-0.012,VALID,19.006,INVALID,360.0,VALID,0.0,
2019-11-06, 02:32:06,VALID,917.196,VALID,0.0,VALID,98.999,VALID,-0.018,VALID,18.998,INVALID,360.0,VALID,0.0,
2019-11-06, 02:33:06,VALID,917.19,VALID,0.0,VALID,99.185,VALID,-0.023,VALID,19.003,INVALID,360.0,VALID,0.0,
2019-11-06, 02:34:06,VALID,917.195,VALID,0.0,VALID,99.29,VALID,-0.022,VALID,19.012,INVALID,360.0,VALID,0.0,
2019-11-06, 02:35:06,VALID,917.193,VALID,0.0,VALID,99.441,VALID,-0.019,VALID,19.034,INVALID,360.0,VALID,0.0,
2019-11-06, 02:36:06,VALID,917.175,VALID,0.0,VALID,99.46,VALID,-0.035,VALID,19.057,INVALID,360.0,VALID,0.0,
2019-11-06, 02:37:06,VALID,917.155,VALID,0.0,VALID,99.519,VALID,0.011,VALID,19.086,INVALID,360.0,VALID,0.0,
2019-11-06, 02:38:06,VALID,917.148,VALID,0.0,VALID,99.473,VALID,0.022,VALID,19.102,INVALID,360.0,VALID,0.0,
2019-11-06, 02:39:06,VALID,917.137,VALID,0.0,VALID,99.4,VALID,0.003,VALID,19.112,INVALID,360.0,VALID,0.0,
2019-11-06, 02:40:06,VALID,917.098,VALID,0.0,VALID,99.366,VALID,0.005,VALID,19.128,INVALID,360.0,VALID,0.0,
2019-11-06, 02:41:06,VALID,917.099,VALID,0.0,VALID,99.27,VALID,0.008,VALID,19.14,INVALID,360.0,VALID,0.0,
2019-11-06, 02:42:06,VALID,917.073,VALID,0.0,VALID,99.231,VALID,0.02,VALID,19.161,INVALID,360.0,VALID,0.0,
2019-11-06, 02:43:06,VALID,917.055,VALID,0.0,VALID,99.17,VALID,0.002,VALID,19.178,INVALID,360.0,VALID,0.0,
2019-11-06, 02:44:06,VALID,917.05,VALID,0.0,VALID,99.06,VALID,0.009,VALID,19.179,INVALID,360.0,VALID,0.0,
2019-11-06, 02:45:06,VALID,917.046,VALID,0.0,VALID,98.943,VALID,0.01,VALID,19.161,INVALID,360.0,VALID,0.0,
2019-11-06, 02:46:06,VALID,917.065,VALID,0.0,VALID,98.948,VALID,0.013,VALID,19.162,INVALID,360.0,VALID,0.0,
2019-11-06, 02:47:06,VALID,917.083,VALID,0.0,VALID,98.944,VALID,-0.005,VALID,19.159,INVALID,360.0,VALID,0.0,
2019-11-06, 02:48:06,VALID,917.095,VALID,0.0,VALID,98.94,VALID,-0.007,VALID,19.142,INVALID,360.0,VALID,0.0,
2019-11-06, 02:49:06,VALID,917.087,VALID,0.0,VALID,98.991,VALID,0.022,VALID,19.145,INVALID,360.0,VALID,0.0,
2019-11-06, 02:50:06,VALID,917.083,VALID,0.0,VALID,99.023,VALID,-0.004,VALID,19.141,INVALID,360.0,VALID,0.0,
2019-11-06, 02:51:06,VALID,917.093,VALID,0.0,VALID,99.012,VALID,0.01,VALID,19.13,INVALID,360.0,VALID,0.0,
2019-11-06, 02:52:06,VALID,917.069,VALID,0.0,VALID,99.026,VALID,-0.021,VALID,19.13,INVALID,360.0,VALID,0.0,
2019-11-06, 02:53:06,VALID,917.054,VALID,0.0,VALID,99.029,VALID,-0.014,VALID,19.137,INVALID,360.0,VALID,0.0,
2019-11-06, 02:54:06,VALID,917.062,VALID,0.0,VALID,99.049,VALID,-0.013,VALID,19.154,INVALID,360.0,VALID,0.0,
2019-11-06, 02:55:06,VALID,917.051,VALID,0.0,VALID,99.039,VALID,-0.006,VALID,19.155,INVALID,360.0,VALID,0.0,
2019-11-06, 02:56:06,VALID,917.069,VALID,0.0,VALID,99.073,VALID,-0.023,VALID,19.167,INVALID,360.0,VALID,0.0,
2019-11-06, 02:57:06,VALID,917.069,VALID,0.0,VALID,99.071,VALID,-0.003,VALID,19.192,INVALID,360.0,VALID,0.0,
2019-11-06, 02:58:06,VALID,917.061,VALID,0.0,VALID,99.045,VALID,-0.01,VALID,19.204,INVALID,360.0,VALID,0.0,
2019-11-06, 02:59:06,VALID,917.067,VALID,0.0,VALID,98.947,VALID,-0.017,VALID,19.209,INVALID,360.0,VALID,0.0,
2019-11-06, 03:00:06,VALID,917.082,VALID,0.0,VALID,98.869,VALID,-0.003,VALID,19.218,INVALID,360.0,VALID,0.0,
2019-11-06, 03:01:06,VALID,917.047,VALID,0.0,VALID,98.809,VALID,-0.029,VALID,19.21,INVALID,360.0,VALID,0.0,
2019-11-06, 03:02:06,VALID,917.038,VALID,0.0,VALID,98.799,VALID,-0.028,VALID,19.229,INVALID,360.0,VALID,0.0,
2019-11-06, 03:03:06,VALID,917.018,VALID,0.0,VALID,98.747,VALID,-0.027,VALID,19.224,INVALID,360.0,VALID,0.0,
2019-11-06, 03:04:06,VALID,917.007,VALID,0.0,VALID,98.676,VALID,-0.005,VALID,19.223,INVALID,360.0,VALID,0.0,
2019-11-06, 03:05:06,VALID,916.985,VALID,0.0,VALID,98.568,VALID,-0.012,VALID,19.215,INVALID,360.0,VALID,0.0,
2019-11-06, 03:06:06,VALID,916.986,VALID,0.0,VALID,98.52,VALID,-0.011,VALID,19.202,INVALID,360.0,VALID,0.0,
2019-11-06, 03:07:06,VALID,916.976,VALID,0.0,VALID,98.471,VALID,-0.002,VALID,19.181,INVALID,360.0,VALID,0.0,
2019-11-06, 03:08:06,VALID,916.959,VALID,0.0,VALID,98.446,VALID,0.005,VALID,19.174,INVALID,360.0,VALID,0.0,
2019-11-06, 03:09:06,VALID,916.94,VALID,0.0,VALID,98.372,VALID,0.001,VALID,19.155,INVALID,360.0,VALID,0.0,
2019-11-06, 03:10:06,VALID,916.936,VALID,0.0,VALID,98.399,VALID,-0.012,VALID,19.152,INVALID,360.0,VALID,0.0,
2019-11-06, 03:11:06,VALID,916.925,VALID,0.0,VALID,98.422,VALID,0.0,VALID,19.16,INVALID,360.0,VALID,0.0,
2019-11-06, 03:12:06,VALID,916.904,VALID,0.0,VALID,98.356,VALID,-0.026,VALID,19.15,INVALID,360.0,VALID,0.0,
2019-11-06, 03:13:06,VALID,916.905,VALID,0.0,VALID,98.313,VALID,-0.003,VALID,19.131,INVALID,360.0,VALID,0.0,
2019-11-06, 03:14:06,VALID,916.915,VALID,0.0,VALID,98.422,VALID,-0.007,VALID,19.132,INVALID,360.0,VALID,0.0,
2019-11-06, 03:15:06,VALID,916.911,VALID,0.0,VALID,98.417,VALID,-0.006,VALID,19.13,INVALID,360.0,VALID,0.0,
2019-11-06, 03:16:06,VALID,916.908,VALID,0.0,VALID,98.508,VALID,-0.013,VALID,19.146,VALID,4.0,VALID,0.0,
2019-11-06, 03:17:06,VALID,916.902,VALID,0.0,VALID,98.543,VALID,0.003,VALID,19.151,VALID,4.0,VALID,0.0,
2019-11-06, 03:18:06,VALID,916.922,VALID,0.0,VALID,98.651,VALID,0.002,VALID,19.162,VALID,4.0,VALID,0.0,
2019-11-06, 03:19:06,VALID,916.913,VALID,0.0,VALID,98.712,VALID,-0.011,VALID,19.168,VALID,4.0,VALID,0.0,
2019-11-06, 03:20:06,VALID,916.925,VALID,0.0,VALID,98.718,VALID,-0.008,VALID,19.158,INVALID,360.0,VALID,0.0,
2019-11-06, 03:21:06,VALID,916.931,VALID,0.0,VALID,98.626,VALID,-0.008,VALID,19.134,INVALID,360.0,VALID,0.0,
2019-11-06, 03:22:06,VALID,916.951,VALID,0.0,VALID,98.592,VALID,0.002,VALID,19.116,INVALID,360.0,VALID,0.0,
2019-11-06, 03:23:06,VALID,916.955,VALID,0.0,VALID,98.601,VALID,-0.025,VALID,19.116,INVALID,360.0,VALID,0.0,
2019-11-06, 03:24:06,VALID,916.954,VALID,0.0,VALID,98.563,VALID,-0.01,VALID,19.109,INVALID,360.0,VALID,0.0,
2019-11-06, 03:25:06,VALID,916.948,VALID,0.0,VALID,98.596,VALID,-0.017,VALID,19.122,INVALID,360.0,VALID,0.0,
2019-11-06, 03:26:06,VALID,916.958,VALID,0.0,VALID,98.615,VALID,-0.004,VALID,19.123,INVALID,360.0,VALID,0.0,
2019-11-06, 03:27:06,VALID,916.94,VALID,0.0,VALID,98.659,VALID,-0.008,VALID,19.147,INVALID,360.0,VALID,0.0,
2019-11-06, 03:28:06,VALID,916.939,VALID,0.0,VALID,98.639,VALID,0.004,VALID,19.152,INVALID,360.0,VALID,0.0,
2019-11-06, 03:29:06,VALID,916.95,VALID,0.0,VALID,98.653,VALID,-0.013,VALID,19.144,INVALID,360.0,VALID,0.0,
2019-11-06, 03:30:06,VALID,916.944,VALID,0.0,VALID,98.746,VALID,0.002,VALID,19.151,INVALID,360.0,VALID,0.0,
2019-11-06, 03:31:06,VALID,916.962,VALID,0.0,VALID,98.747,VALID,-0.001,VALID,19.142,INVALID,360.0,VALID,0.0,
2019-11-06, 03:32:06,VALID,916.982,VALID,0.0,VALID,98.744,VALID,-0.009,VALID,19.131,INVALID,360.0,VALID,0.0,
2019-11-06, 03:33:06,VALID,916.979,VALID,0.0,VALID,98.809,VALID,0.002,VALID,19.126,INVALID,360.0,VALID,0.0,
2019-11-06, 03:34:06,VALID,916.999,VALID,0.0,VALID,98.844,VALID,-0.006,VALID,19.118,INVALID,360.0,VALID,0.0,
2019-11-06, 03:35:06,VALID,917.009,VALID,0.0,VALID,98.953,VALID,-0.011,VALID,19.124,INVALID,360.0,VALID,0.0,
2019-11-06, 03:36:06,VALID,916.994,VALID,0.0,VALID,98.941,VALID,-0.019,VALID,19.113,INVALID,360.0,VALID,0.0,
2019-11-06, 03:37:06,VALID,917.003,VALID,0.0,VALID,98.974,VALID,-0.013,VALID,19.115,INVALID,360.0,VALID,0.0,
2019-11-06, 03:38:06,VALID,916.996,VALID,0.0,VALID,98.985,VALID,-0.011,VALID,19.11,INVALID,360.0,VALID,0.0,